Regional Weather Roundup
Issued by NWS Austin/San Antonio, TX

Home | Current Version | Previous Version | Text Only | Print | Product List | Glossary On
Versions: 1 2 3 4 5 6 7 8 9 10 11 12 13 14 15 16 17 18 19 20 21 22 23 24 25 26 27 28 29 30 31 32 33 34 35 36 37 38 39 40 41 42 43 44 45 46 47 48 49 50
000
ASUS44 KEWX 162301
RWREWX
SOUTH TEXAS REGIONAL WEATHER ROUNDUP
NATIONAL WEATHER SERVICE AUSTIN/SAN ANTONIO TX
500 PM CST TUE JAN 16 2018

NOTE: "FAIR" INDICATED FEW OR NO CLOUDS BELOW 12,000 FEET WITH NO
SIGNIFICANT WEATHER AND/OR OBSTRUCTIONS TO VISIBILITY.

* - THESE STATIONS ARE NOT NWS OR FAA STATIONS...AND ARE NOT SUBJECT
    TO NWS AND FAA QUALITY CONTROL.

TXZ171-172-183>190-170000-
TEXAS HILL COUNTRY AND EDWARDS PLATEAU

CITY           SKY/WX    TMP DP  RH WIND       PRES   REMARKS
JUNCTION       CLOUDY    27  -2  28 N13       30.63F WCI  16
*LLANO         CLOUDY    28   1  31 N9        30.72S WCI  20
BURNET         CLOUDY    26   0  32 N10G17    30.67F WCI  16
*HORSESHOE BAY CLOUDY    28   3  33 N10G17    30.67S WCI  19
*KERRVILLE     CLOUDY    26   2  34 N10G17    30.61S WCI  16
*FREDERICKSBRG CLOUDY    26  -6  24 N14G21    30.62S WCI  15
*ROCKSPRINGS     N/A     27  -2  28 NE10G17   30.63S WCI  17
*BOERNE STAGE  CLOUDY    27   3  36 N14G22    30.62F WCI  15
*CASTROVILLE   CLOUDY    31  10  41 N12G18    30.67S WCI  22
HONDO          CLOUDY    32  17  54 N13       30.66R WCI  22
*UVALDE        CLOUDY    32   6  33 N9        30.67S WCI  25
DEL RIO        CLOUDY    35  -1  21 N8        30.67S WCI  29
LAUGHLIN AFB   CLOUDY    34  -3  20 N13       30.66S WCI  25
CARRIZO SPRGS  CLOUDY    34  14  44 N6        30.66F WCI  29
*EAGLE PASS    CLOUDY    37   0  20 N8        30.67S WCI  31
*FAITH RANCH   CLOUDY    36  16  44 N8G15     30.66S WCI  29
$$

TXZ173-191>194-202-209-217>225-228-170000-
CENTRAL AND SOUTH CENTRAL TEXAS

CITY           SKY/WX    TMP DP  RH WIND       PRES   REMARKS
GEORGETOWN     CLOUDY    26   5  40 N14G23    30.70R WCI  14
AUSTIN/BERGSTM CLOUDY    28  14  55 N16       30.67F WCI  16
AUSTIN/MABRY   CLOUDY    29   4  34 N10G21    30.68F WCI  20
*AUSTIN/EXEC   CLOUDY    28   7  40 N16       30.68S WCI  17
*LAGO VISTA    CLOUDY    27   2  33 MISG      30.65S
SAN MARCOS     CLOUDY    28  13  53 N17G26    30.67S WCI  16
NEW BRAUNFELS  CLOUDY    29  12  49 N16       30.65S WCI  17
RANDOLPH AFB   CLOUDY    30   9  41 N13       30.64S WCI  20
PT SAN ANTONIO CLOUDY    30  11  43 N13       30.63S WCI  20
SAN ANTONIO    CLOUDY    30   9  41 N13       30.65S WCI  20
STINSON FIELD  CLOUDY    32  12  43 N16G23    30.64F WCI  21
*LA GRANGE     CLOUDY    28  16  61 N13G18    30.66R WCI  17
*GIDDINGS      CLOUDY    26  14  61 N10G18    30.67F WCI  15
*GONZALES      CLOUDY    27  16  63 N16G22    30.67R WCI  15
$$

TXZ163>164-176>182-195>201-210>213-226-227-235-170000-
SOUTHEAST TEXAS

CITY           SKY/WX    TMP DP  RH WIND       PRES   REMARKS
COLLEGE STN    CLOUDY    26  12  55 N16G24    30.68R WCI  14
*BRYAN         CLOUDY    25  11  56 N9G18     30.70R WCI  15
*CALDWELL      CLOUDY    25  12  58 N18       30.69R WCI  11
*CROCKETT        N/A     25  10  54 CALM      30.69F
*BRENHAM       CLOUDY    27  18  68 N14G22    30.68R WCI  16
HUNTSVILLE     CLOUDY    23  13  65 N10G17    30.65S WCI  12
CONROE         CLOUDY    25  17  72 N12G20    30.64S WCI  14
HOUSTON BUSH   LGTSLEET  26  20  77 N13       30.64S WCI  15
HOUSTON HOBBY  LGTSLEET  26  22  84 N18G28    30.62S WCI  13
*HOUSTON SW AP FLURRIES  26  23  87 MISG      30.64S
PEARLAND       MIX PCPN  27  23  85 N15G22    30.64S WCI  15
HOUSTON HOOKS  CLOUDY    25  19  78 N9G18     30.65S WCI  15
ELLINGTON FLD  LGTSLEET  27  21  80 N3        30.64R
SUGAR LAND     MIX PCPN  26  19  74 N18G24    30.63S WCI  13
*HOUSTON EXEC  FAIR      25  19  80 CALM      30.66S
*CLEVELAND MUN CLOUDY    26  20  77 N3        30.65S HAZE
*WHARTON       MIX PCPN  25  21  83 CALM      30.65S
*COLUMBUS      CLOUDY    26  17  66 N12G17    30.67R WCI  16
*EAGLE LAKE    CLOUDY    27  21  77 MISG      30.66R
$$

TXZ214>216-236>238-170000-
THE UPPER TEXAS COAST

CITY           SKY/WX    TMP DP  RH WIND       PRES   REMARKS
*ORANGE        MIX PCPN  28  27  94 N10       30.61R WCI  19
PORT ARTHUR    MIX PCPN  27  22  81 N22       30.59R WCI  13
GALVESTON      CLOUDY    30  25  81 N30G37    30.60S WCI  15
ANGLETON         N/A    N/A N/A N/A MISG      30.61S
*BAY CITY      CLOUDY    27  24  88 N10       30.62S WCI  18
PALACIOS       CLOUDY    27  24  89 N23G32    30.62S WCI  12
$$

TXZ229>234-239>247-170000-
TEXAS COASTAL BEND AND RIO GRANDE PLAINS

CITY           SKY/WX    TMP DP  RH WIND       PRES   REMARKS
VICTORIA       CLOUDY    27  21  78 N15       30.66R WCI  15
*BEEVILLE      CLOUDY    28  20  72 N18G24    30.67R WCI  15
ROCKPORT       CLOUDY    28  24  85 N20G29    30.64R WCI  15
*PORT ARANSAS  NOT AVBL
*PORT LAVACA   MIX PCPN  27  23  84 N18G26    30.64S WCI  14
*INGLESIDE     CLOUDY    30  24  78 N14       30.64R WCI  20
CORPUS CHRISTI FRZ DRZL  29  24  82 N22       30.65R WCI  15
CORPUS NAS     CLOUDY    32  24  72 N29G35    30.64R WCI  18
*ROBSTOWN      NOT AVBL
ALICE          CLOUDY    29  23  78 N17       30.66R WCI  17
KINGSVILLE NAS NOT AVBL
COTULLA        CLOUDY    33  13  43 N14       30.68S WCI  23
LAREDO         CLOUDY    32  23  69 N12       30.67F WCI  23
$$

TXZ248>255-170000-
DEEP SOUTH TEXAS

CITY           SKY/WX    TMP DP  RH WIND       PRES   REMARKS
BROWNSVILLE    NOT AVBL
PORT ISABEL    NOT AVBL
*SOUTH PADRE   NOT AVBL
HARLINGEN      MIX PCPN  30  30 100 N21       30.61R FOG     WCI  17
*HEBBRONVILLE  CLOUDY    28  26  91 N7        30.64R FOG     WCI  21
MCALLEN        LGT RAIN  34  28  80 N20G26    30.65R FOG     WCI  22
*WESLACO       LGT SNOW  30  28  90 N13       30.63R WCI  20
FALFURRIAS     CLOUDY    31  25  78 N12G18    30.66R WCI  22
EDINBURG       DRIZZLE   32  31  93 N16       30.65R WCI  22
*ZAPATA        CLOUDY    32  27  83 N12G20    30.67R WCI  23
$$

TXZ213>215-236>238-242>244-246-247-251-254-255-170000-
CMAN STATIONS

STATION/POSITION TIME  TEMP    WIND        PRES    WAVE
                       AIR SEA DIR/SP/G            HT/PER
                 (UTC) (F)     (DEG/KT/KT) (MB)    (FT/S)
SABINE PASS      2230   31 49  360/ 20/ 27 1037.0
SEA RIM ST PARK  2200   29     360/  8/ 10 1035.7
NORTH JETTY/GLS  2230      43  360/ 17/ 19 1035.0
EAGLE POINT      2230   27 45   10/  7/ 12 1036.8
MORGANS POINT    2230   27 49  360/  3/  7 1036.9
PORT O`CONNOR    2230   29 40  360/ 26/ 32 1037.2
MALAQUITE BEACH  2230   31 53  340/ 21/ 26 1036.5
BAFFIN BAY       2230   31 50  340/ 19/ 24 1037.6
PORT ISABEL      2230   33 57  330/ 22/ 32 1034.0
$$



USA.gov is the U.S. government's official web portal to all federal, state and local government web resources and services.